map of BIA home
BIA - Airport
Location
City:  Bastia, Corse (Corsica), France
Name:Poretta
ICAO:LFKB
IATA:BIA

Details
Type:Airport (Aerodrome, Airfield)
Use:Public/Civil
Latitude:4233'00"N (42.550000)
Longitude:929'05"E (9.484722)
Elevation:26 ft (8 m)
Variation:2.59E (WMM2015 magnetic declination)
0.11 annual change
Runways:1
Longest:8268 × 148 ft (2520 × 45 m), paved

Time
Time Zone:UTC+1 (DST+2)
Local Time:

Weather
METAR:LFKB 160800Z AUTO 20006KT 9999 BKN058 08/03 Q1018 NOSIG
TAF:LFKB 160200Z 1603/1703 23005KT 9999 SCT045 BKN070 TX11/1612Z TN06/1603Z
BECMG 1606/1608 VRB03KT
TEMPO 1615/1624 -RA BKN025 OVC040
TEMPO 1700/1703 7000 RA BKN013 OVC030
BECMG 1700/1702 33015G30KT

Related Locations
Nearby:
Farthest:CHT: 12128 mi / 19517 km
Waitangi [Tuuta], CIT, NZ

Find:

   beyond  
but within

Other Information
Maps:
NOTAMs:
Links:
Sources:

  
  • flag of France
  • flag of Corse (Corsica)
  

Sectional Chart

Flight Planning
at skyvector.com

Satellite Image

Google Maps Satellite view

 

Copyright © 2004-2018 Karl L. Swartz. All rights reserved.
The Great Circle Mapper name and logo are trademarks of the Great Circle Mapper.
All other trademarks mentioned herein belong to their respective owners.
Please see credits for attibutions and further copyright information.

  Follow gcmap on Facebook Follow gcmap on Twitter Follow gcmap on Google+ GCmap on LinkedIn

hCard Microformat

Geo Microformat